WXM80 ListenWXM80 Stop

You find our weather info also at:

UK Metoffice

WeatherCloud

Weather Underground

Northeastern Weather Network

AWEKAS

Citizen Weather Observer Program (CWOP)

HAMweather, WeatherForYou, PWS Weather


Weather Underground History page Text

Daily Summary for February 14, 2018 Units:  Metric    English   Both
« Previous Day
Next Day »
Daily Weekly Monthly Yearly Custom
  High: Low: Average:
Temperature: 10.5 °C -0.4 °C 5 °C
Dew Point: 5.7 °C -3.2 °C 1.6 °C
Humidity: 94 % 61 % 80 %
Wind Speed: 11.9 km/h 0 km/h 3.1 km/h
Wind Gust: 20.4 km/h - -
Wind:- - SW
Pressure: 1026.6 hPa 1008.7 hPa -
Precipitation: 0 mm    
Historical Graphs
 
 
Tabular Data for February 14, 2018
Time Temperature Dew Point Pressure Wind Wind Speed Wind Gust Humidity Rainfall Rate (Hourly)
00:03 -0.4 °C -3.1 °C 1026.3 hPa Calm     82 % 0 mm
00:08 -0.3 °C -3.1 °C 1026.3 hPa Calm     82 % 0 mm
00:13 -0.3 °C -3.2 °C 1026.3 hPa Calm     81 % 0 mm
00:18 -0.3 °C -3.2 °C 1026.3 hPa Calm   1.9 km/h 81 % 0 mm
00:23 -0.3 °C -3.1 °C 1026.3 hPa SSE 0.8 km/h 1.9 km/h 82 % 0 mm
00:28 -0.3 °C -3 °C 1026.3 hPa Calm   1.9 km/h 82 % 0 mm
00:33 -0.3 °C -3 °C 1026.6 hPa Calm     82 % 0 mm
00:38 -0.2 °C -2.9 °C 1026.6 hPa Calm   1.9 km/h 82 % 0 mm
00:43 -0.2 °C -2.9 °C 1026.3 hPa Calm     82 % 0 mm
00:48 -0.2 °C -2.9 °C 1026 hPa Calm     82 % 0 mm
00:53 -0.1 °C -2.8 °C 1026 hPa Calm     82 % 0 mm
00:58 -0.1 °C -2.8 °C 1025.6 hPa Calm     82 % 0 mm
01:03 -0.1 °C -2.8 °C 1025.6 hPa Calm     82 % 0 mm
01:08 -0.1 °C -2.8 °C 1025.6 hPa Calm     82 % 0 mm
01:18 -0.1 °C -2.8 °C 1025.6 hPa Calm     82 % 0 mm
01:23 -0.1 °C -2.8 °C 1025.3 hPa Calm     82 % 0 mm
01:28 0 °C -2.7 °C 1025.3 hPa Calm     82 % 0 mm
01:34 0 °C -2.7 °C 1025.3 hPa Calm     82 % 0 mm
01:39 0 °C -2.7 °C 1024.9 hPa Calm     82 % 0 mm
01:44 0 °C -2.7 °C 1024.9 hPa Calm     82 % 0 mm
01:49 0 °C -2.7 °C 1024.6 hPa Calm     82 % 0 mm
01:54 0 °C -2.7 °C 1024.6 hPa Calm     82 % 0 mm
01:59 0.1 °C -2.7 °C 1024.3 hPa Calm     82 % 0 mm
02:04 0.1 °C -2.7 °C 1024.3 hPa Calm     82 % 0 mm
02:09 0.1 °C -2.7 °C 1024.3 hPa Calm   1.9 km/h 82 % 0 mm
02:14 0.1 °C -2.7 °C 1024.3 hPa Calm     82 % 0 mm
02:19 0.1 °C -2.5 °C 1024.3 hPa Calm   3.7 km/h 83 % 0 mm
02:24 0.1 °C -2.5 °C 1024.3 hPa WSW 1.6 km/h 5.6 km/h 83 % 0 mm
02:29 0.1 °C -2.5 °C 1024.3 hPa WSW 1.4 km/h 5.6 km/h 83 % 0 mm
02:34 0.1 °C -2.4 °C 1024.3 hPa Calm     83 % 0 mm
02:39 0.1 °C -2.4 °C 1024.3 hPa West 2.3 km/h 5.6 km/h 83 % 0 mm
02:44 0.1 °C -2.3 °C 1024.3 hPa West 1.9 km/h 5.6 km/h 84 % 0 mm
02:50 0.2 °C -2.2 °C 1023.9 hPa Calm     84 % 0 mm
02:55 0.2 °C -2.2 °C 1023.6 hPa West 2.4 km/h 5.6 km/h 84 % 0 mm
03:00 0.2 °C -2.2 °C 1023.6 hPa Calm     84 % 0 mm
03:05 0.2 °C -2.2 °C 1023.6 hPa West 1.9 km/h 3.7 km/h 84 % 0 mm
03:10 0.2 °C -2.2 °C 1023.6 hPa West 1.3 km/h 3.7 km/h 84 % 0 mm
03:15 0.2 °C -2.2 °C 1023.2 hPa Calm   1.9 km/h 84 % 0 mm
03:20 0.2 °C -2.2 °C 1023.2 hPa West 1 km/h 3.7 km/h 84 % 0 mm
03:25 0.2 °C -2.2 °C 1023.2 hPa Calm     84 % 0 mm
03:30 0.2 °C -2.2 °C 1022.9 hPa West 0.2 km/h 1.9 km/h 84 % 0 mm
03:35 0.2 °C -2.2 °C 1022.6 hPa West 0.3 km/h 1.9 km/h 84 % 0 mm
03:40 0.2 °C -2.2 °C 1021.9 hPa Calm     84 % 0 mm
03:45 0.2 °C -2.2 °C 1021.9 hPa Calm     84 % 0 mm
03:50 0.2 °C -2.2 °C 1021.6 hPa Calm     84 % 0 mm
03:55 0.2 °C -2.2 °C 1021.6 hPa Calm     84 % 0 mm
04:00 0.2 °C -2.1 °C 1021.6 hPa Calm     85 % 0 mm
04:05 0.1 °C -2.1 °C 1021.6 hPa Calm     85 % 0 mm
04:10 0.1 °C -2.1 °C 1021.6 hPa Calm     85 % 0 mm
04:15 0.1 °C -2.1 °C 1021.6 hPa Calm     85 % 0 mm
04:20 0.1 °C -2.1 °C 1021.6 hPa Calm     85 % 0 mm
04:26 0.1 °C -2.1 °C 1021.9 hPa Calm     85 % 0 mm
04:31 0.1 °C -1.9 °C 1021.9 hPa Calm   3.2 km/h 86 % 0 mm
04:36 0.2 °C -1.9 °C 1021.9 hPa Calm     86 % 0 mm
04:41 0.2 °C -1.9 °C 1021.6 hPa Calm     86 % 0 mm
04:46 0.2 °C -1.9 °C 1021.6 hPa Calm     86 % 0 mm
04:51 0.2 °C -1.9 °C 1021.6 hPa Calm     86 % 0 mm
04:56 0.2 °C -1.9 °C 1021.9 hPa Calm     86 % 0 mm
05:01 0.2 °C -1.7 °C 1021.9 hPa Calm     87 % 0 mm
05:06 0.2 °C -1.7 °C 1021.9 hPa Calm     87 % 0 mm
05:11 0.3 °C -1.6 °C 1021.2 hPa Calm     87 % 0 mm
05:16 0.3 °C -1.5 °C 1021.6 hPa Calm     88 % 0 mm
05:21 0.3 °C -1.4 °C 1021.6 hPa Calm   1.9 km/h 88 % 0 mm
05:26 0.3 °C -1.4 °C 1021.6 hPa Calm     88 % 0 mm
05:31 0.4 °C -1.2 °C 1021.6 hPa Calm     89 % 0 mm
05:36 0.4 °C -1.2 °C 1021.2 hPa Calm   1.9 km/h 89 % 0 mm
05:41 0.4 °C -1.2 °C 1021.2 hPa Calm     89 % 0 mm
05:46 0.4 °C -1.2 °C 1021.2 hPa Calm     89 % 0 mm
05:51 0.4 °C -1.2 °C 1021.2 hPa Calm     89 % 0 mm
05:56 0.5 °C -1.1 °C 1020.9 hPa Calm     89 % 0 mm
06:01 0.5 °C -0.9 °C 1020.9 hPa Calm     90 % 0 mm
06:06 0.5 °C -0.9 °C 1020.9 hPa Calm     90 % 0 mm
06:11 0.5 °C -0.9 °C 1020.5 hPa Calm     90 % 0 mm
06:16 0.5 °C -0.9 °C 1020.5 hPa Calm     90 % 0 mm
06:21 0.5 °C -0.9 °C 1020.5 hPa Calm     90 % 0 mm
06:26 0.5 °C -0.9 °C 1020.5 hPa Calm     90 % 0 mm
06:32 0.5 °C -0.9 °C 1020.5 hPa Calm     90 % 0 mm
06:37 0.5 °C -0.9 °C 1020.9 hPa Calm     90 % 0 mm
06:42 0.5 °C -0.9 °C 1020.5 hPa Calm     90 % 0 mm
06:47 0.6 °C -0.7 °C 1020.2 hPa Calm   3.7 km/h 91 % 0 mm
06:52 0.6 °C -0.7 °C 1020.2 hPa Calm     91 % 0 mm
06:57 0.6 °C -0.7 °C 1020.2 hPa Calm     91 % 0 mm
07:02 0.6 °C -0.7 °C 1020.2 hPa Calm     91 % 0 mm
07:07 0.6 °C -0.7 °C 1020.2 hPa Calm     91 % 0 mm
07:12 0.6 °C -0.7 °C 1020.2 hPa Calm     91 % 0 mm
07:17 0.7 °C -0.6 °C 1020.5 hPa Calm     91 % 0 mm
07:22 0.7 °C -0.6 °C 1020.2 hPa Calm     91 % 0 mm
07:27 0.8 °C -0.4 °C 1020.2 hPa Calm     92 % 0 mm
07:32 0.8 °C -0.4 °C 1020.5 hPa Calm     92 % 0 mm
07:37 0.8 °C -0.4 °C 1020.2 hPa Calm     92 % 0 mm
07:42 0.8 °C -0.3 °C 1020.2 hPa Calm     92 % 0 mm
07:47 0.9 °C -0.3 °C 1020.5 hPa Calm     92 % 0 mm
07:52 0.9 °C -0.2 °C 1020.2 hPa Calm   1.9 km/h 92 % 0 mm
07:57 1 °C 0 °C 1020.2 hPa Calm   1.9 km/h 93 % 0 mm
08:02 1.1 °C 0.1 °C 1019.9 hPa Calm     93 % 0 mm
08:07 1.2 °C 0.2 °C 1020.2 hPa Calm     93 % 0 mm
08:12 1.3 °C 0.3 °C 1019.9 hPa Calm     93 % 0 mm
08:18 1.3 °C 0.3 °C 1020.2 hPa Calm     93 % 0 mm
08:23 1.4 °C 0.4 °C 1019.9 hPa Calm     93 % 0 mm
08:28 1.6 °C 0.7 °C 1019.9 hPa West 1.3 km/h 1.6 km/h 94 % 0 mm
08:33 1.7 °C 0.8 °C 1019.9 hPa Calm     94 % 0 mm
08:38 1.8 °C 0.9 °C 1019.9 hPa SW 1.9 km/h 3.7 km/h 94 % 0 mm
08:43 1.9 °C 1 °C 1019.9 hPa SSW 4.8 km/h 7.4 km/h 94 % 0 mm
08:48 2 °C 1.1 °C 1019.9 hPa WSW 4.7 km/h 9.3 km/h 94 % 0 mm
08:53 2.2 °C 1.3 °C 1019.9 hPa SW 4 km/h 7.4 km/h 94 % 0 mm
08:58 2.3 °C 1.4 °C 1019.5 hPa SW 4.7 km/h 11.1 km/h 94 % 0 mm
09:03 2.4 °C 1.5 °C 1019.5 hPa SW 4.7 km/h 9.3 km/h 94 % 0 mm
09:08 2.5 °C 1.6 °C 1019.5 hPa WSW 4 km/h 8 km/h 94 % 0 mm
09:13 2.6 °C 1.7 °C 1019.5 hPa South 1.8 km/h 5.6 km/h 94 % 0 mm
09:18 2.7 °C 1.8 °C 1019.2 hPa SSW 5.5 km/h 9.3 km/h 94 % 0 mm
09:23 2.8 °C 1.8 °C 1019.2 hPa SW 3.1 km/h 5.6 km/h 93 % 0 mm
09:28 2.9 °C 1.9 °C 1019.2 hPa SW 1.8 km/h 5.6 km/h 93 % 0 mm
09:33 3.1 °C 2.1 °C 1019.5 hPa SW 1.9 km/h 8 km/h 93 % 0 mm
09:38 3.2 °C 2.1 °C 1019.2 hPa SSW 0.6 km/h 5.6 km/h 92 % 0 mm
09:43 3.3 °C 2.2 °C 1019.2 hPa SW 7.7 km/h 13 km/h 92 % 0 mm
09:48 3.6 °C 2.2 °C 1018.8 hPa SW 4.5 km/h 9.3 km/h 91 % 0 mm
09:53 3.8 °C 2.3 °C 1018.8 hPa SW 5.5 km/h 11.1 km/h 90 % 0 mm
09:59 4 °C 2.3 °C 1018.5 hPa WSW 2.9 km/h 9.3 km/h 89 % 0 mm
10:04 4.3 °C 2.6 °C 1018.5 hPa WSW 3.7 km/h 9.3 km/h 89 % 0 mm
10:09 4.5 °C 2.5 °C 1018.5 hPa SSW 7.2 km/h 11.1 km/h 87 % 0 mm
10:14 4.8 °C 2.6 °C 1018.5 hPa SW 10 km/h 13 km/h 86 % 0 mm
10:19 5.1 °C 2.6 °C 1018.2 hPa SW 8.4 km/h 19.3 km/h 84 % 0 mm
10:24 5.4 °C 2.8 °C 1018.2 hPa SW 6.8 km/h 17.7 km/h 83 % 0 mm
10:29 5.8 °C 2.8 °C 1018.5 hPa SW 9.3 km/h 13 km/h 81 % 0 mm
10:34 6.1 °C 3.1 °C 1018.2 hPa SSW 5.3 km/h 9.3 km/h 81 % 0 mm
10:39 6.4 °C 2.9 °C 1018.2 hPa SSW 10 km/h 14.8 km/h 78 % 0 mm
10:44 6.7 °C 2.6 °C 1017.8 hPa SW 5.8 km/h 11.1 km/h 75 % 0 mm
10:49 6.9 °C 2.6 °C 1017.8 hPa West 7.7 km/h 11.3 km/h 74 % 0 mm
10:54 7.2 °C 2.5 °C 1017.5 hPa West 10.3 km/h 20.4 km/h 72 % 0 mm
10:59 7.6 °C 2.6 °C 1017.5 hPa WSW 7.1 km/h 18.5 km/h 71 % 0 mm
11:04 7.8 °C 2.7 °C 1017.5 hPa SW 5.1 km/h 7.4 km/h 70 % 0 mm
11:09 7.9 °C 2.6 °C 1017.5 hPa WSW 6 km/h 11.1 km/h 69 % 0 mm
11:14 8.1 °C 2.7 °C 1017.5 hPa West 8.2 km/h 14.8 km/h 69 % 0 mm
11:19 8.2 °C 3.1 °C 1017.5 hPa West 7.7 km/h 12.9 km/h 70 % 0 mm
11:25 8.4 °C 2.6 °C 1017.5 hPa SW 6.6 km/h 16.7 km/h 67 % 0 mm
11:30 8.6 °C 2.8 °C 1017.5 hPa WNW 6.3 km/h 9.3 km/h 67 % 0 mm
11:35 8.7 °C 2.9 °C 1017.5 hPa West 2.6 km/h 9.7 km/h 67 % 0 mm
11:40 8.8 °C 2.8 °C 1017.2 hPa WSW 7.1 km/h 9.3 km/h 66 % 0 mm
11:45 8.9 °C 2.7 °C 1016.8 hPa West 5.8 km/h 14.8 km/h 65 % 0 mm
11:50 8.9 °C 2.7 °C 1016.8 hPa SW 7.4 km/h 9.3 km/h 65 % 0 mm
11:54 8.9 °C 2.7 °C 1016.8 hPa SW 1.4 km/h 9.3 km/h 65 % 0 mm
12:00 9 °C 2.8 °C 1016.5 hPa WSW 10.9 km/h 17.7 km/h 65 % 0 mm
12:05 8.8 °C 2.8 °C 1016.5 hPa West 4.7 km/h 9.3 km/h 66 % 0 mm
12:10 8.8 °C 2.6 °C 1016.1 hPa WNW 8.7 km/h 14.8 km/h 65 % 0 mm
12:15 8.8 °C 2.6 °C 1016.1 hPa WSW 9.2 km/h 16.7 km/h 65 % 0 mm
12:20 8.8 °C 2.8 °C 1015.8 hPa WSW 9.7 km/h 14.8 km/h 66 % 0 mm
12:25 8.9 °C 2.7 °C 1015.8 hPa WSW 6.3 km/h 9.3 km/h 65 % 0 mm
12:30 9.1 °C 2.9 °C 1015.8 hPa WSW 8 km/h 13 km/h 65 % 0 mm
12:35 9.2 °C 2.8 °C 1015.8 hPa WNW 7.1 km/h 11.1 km/h 64 % 0 mm
12:40 9.3 °C 2.9 °C 1015.5 hPa NW 5.3 km/h 11.1 km/h 64 % 0 mm
12:45 9.4 °C 2.7 °C 1015.5 hPa West 6.8 km/h 9.3 km/h 63 % 0 mm
12:50 9.6 °C 2.8 °C 1015.5 hPa NW 5.6 km/h 7.4 km/h 63 % 0 mm
12:55 9.6 °C 3.3 °C 1015.1 hPa NNW 4.7 km/h 9.3 km/h 65 % 0 mm
13:00 9.6 °C 3.3 °C 1015.1 hPa NNW 4.8 km/h 7.4 km/h 65 % 0 mm
13:05 9.6 °C 3.1 °C 1015.1 hPa NNW 5.5 km/h 7.4 km/h 64 % 0 mm
13:10 9.7 °C 3.4 °C 1014.8 hPa NNW 4.3 km/h 6.4 km/h 65 % 0 mm
13:15 9.8 °C 3.3 °C 1014.8 hPa WNW 3.9 km/h 9.7 km/h 64 % 0 mm
13:20 10 °C 3.5 °C 1014.4 hPa WSW 3.2 km/h 7.4 km/h 64 % 0 mm
13:26 10.1 °C 3.4 °C 1014.4 hPa WNW 3.2 km/h 9.7 km/h 63 % 0 mm
13:31 10.3 °C 3.3 °C 1014.4 hPa WNW 3.2 km/h 11.3 km/h 62 % 0 mm
13:36 10.4 °C 3.2 °C 1014.4 hPa WNW 4.8 km/h 11.3 km/h 61 % 0 mm
13:41 10.5 °C 3.3 °C 1014.4 hPa WNW 4.8 km/h 9.7 km/h 61 % 0 mm
13:46 10.5 °C 3.5 °C 1014.1 hPa WSW 3.2 km/h 11.3 km/h 62 % 0 mm
13:51 10.4 °C 3.2 °C 1014.1 hPa WSW 4.8 km/h 14.5 km/h 61 % 0 mm
13:56 10.3 °C 3.3 °C 1014.1 hPa WSW 4.8 km/h 12.9 km/h 62 % 0 mm
14:01 10.2 °C 3.2 °C 1014.1 hPa West 7.1 km/h 8 km/h 62 % 0 mm
14:06 10 °C 3.3 °C 1014.1 hPa West 4.8 km/h 12.9 km/h 63 % 0 mm
14:11 9.9 °C 3.2 °C 1013.8 hPa West 3.2 km/h 9.7 km/h 63 % 0 mm
14:16 9.8 °C 3.3 °C 1013.8 hPa West 4.8 km/h 12.9 km/h 64 % 0 mm
14:21 9.7 °C 3.2 °C 1013.8 hPa West 8 km/h 11.3 km/h 64 % 0 mm
14:26 9.7 °C 3.2 °C 1013.8 hPa WSW 3.5 km/h 7.4 km/h 64 % 0 mm
14:31 9.7 °C 3.4 °C 1013.8 hPa WSW 8 km/h 12.9 km/h 65 % 0 mm
14:36 9.7 °C 3.4 °C 1013.4 hPa WSW 1.1 km/h 7.4 km/h 65 % 0 mm
14:41 9.7 °C 3.4 °C 1013.4 hPa WSW 3.2 km/h 9.7 km/h 65 % 0 mm
14:46 9.6 °C 3.3 °C 1013.4 hPa WSW 4.8 km/h 11.3 km/h 65 % 0 mm
14:51 9.6 °C 3.3 °C 1013.4 hPa WSW 5.5 km/h 13 km/h 65 % 0 mm
14:56 9.6 °C 3.3 °C 1013.1 hPa WSW 3.2 km/h 11.3 km/h 65 % 0 mm
15:01 9.7 °C 3.4 °C 1013.1 hPa WSW 6.6 km/h 14.5 km/h 65 % 0 mm
15:06 9.7 °C 3.7 °C 1013.1 hPa SW 4.8 km/h 14.5 km/h 66 % 0 mm
15:11 9.8 °C 3.3 °C 1013.1 hPa SW 8 km/h 14.5 km/h 64 % 0 mm
15:16 9.8 °C 3.3 °C 1013.1 hPa SW 11.9 km/h 13 km/h 64 % 0 mm
15:21 9.9 °C 3.4 °C 1013.1 hPa SW 4.8 km/h 12.9 km/h 64 % 0 mm
15:26 10 °C 3.5 °C 1012.8 hPa SW 8 km/h 12.9 km/h 64 % 0 mm
15:31 10.1 °C 3.6 °C 1012.8 hPa SSE 9 km/h 13 km/h 64 % 0 mm
15:36 10.1 °C 3.6 °C 1012.8 hPa WSW 2.1 km/h 9.3 km/h 64 % 0 mm
15:41 10.1 °C 3.6 °C 1012.4 hPa SW 6.4 km/h 13 km/h 64 % 0 mm
15:46 10.1 °C 3.6 °C 1012.4 hPa SW 8 km/h 14.8 km/h 64 % 0 mm
15:51 10.1 °C 3.6 °C 1012.4 hPa SSW 6.1 km/h 11.1 km/h 64 % 0 mm
15:56 10.1 °C 3.6 °C 1012.1 hPa SSW 3.4 km/h 13 km/h 64 % 0 mm
16:01 10.1 °C 3.8 °C 1012.1 hPa SW 4.3 km/h 7.4 km/h 65 % 0 mm
16:06 10.1 °C 3.8 °C 1012.1 hPa South 2.3 km/h 4.8 km/h 65 % 0 mm
16:11 10.1 °C 3.6 °C 1012.1 hPa SW 8.5 km/h 14.8 km/h 64 % 0 mm
16:16 10.1 °C 3.8 °C 1011.7 hPa SW 3.9 km/h 11.3 km/h 65 % 0 mm
16:21 10 °C 3.5 °C 1011.7 hPa SSW 9.5 km/h 14.8 km/h 64 % 0 mm
16:27 9.9 °C 3.7 °C 1011.7 hPa SSW 3.2 km/h 7.4 km/h 65 % 0 mm
16:32 9.9 °C 3.7 °C 1011.7 hPa South 5.3 km/h 5.6 km/h 65 % 0 mm
16:37 9.9 °C 3.6 °C 1011.7 hPa SSW 10 km/h 13 km/h 65 % 0 mm
16:42 9.8 °C 3.8 °C 1011.7 hPa South 5.3 km/h 11.1 km/h 66 % 0 mm
16:47 9.8 °C 3.7 °C 1011.7 hPa SSW 7.1 km/h 11.1 km/h 66 % 0 mm
16:52 9.7 °C 3.6 °C 1011.7 hPa SSW 5.1 km/h 11.1 km/h 66 % 0 mm
16:57 9.6 °C 3.5 °C 1011.7 hPa West 3.1 km/h 8 km/h 66 % 0 mm
17:02 9.4 °C 3.6 °C 1011.7 hPa SW 7.1 km/h 11.1 km/h 67 % 0 mm
17:07 9.3 °C 3.4 °C 1011.7 hPa SW 4.8 km/h 9.3 km/h 67 % 0 mm
17:12 9.1 °C 3.5 °C 1011.7 hPa SW 4.2 km/h 5.6 km/h 68 % 0 mm
17:17 9 °C 3.4 °C 1011.7 hPa WSW 6.9 km/h 11.3 km/h 68 % 0 mm
17:22 8.8 °C 3.2 °C 1011.7 hPa SW 0.8 km/h 3.7 km/h 68 % 0 mm
17:27 8.7 °C 3.3 °C 1011.7 hPa West 1.8 km/h 5.6 km/h 69 % 0 mm
17:32 8.6 °C 3.2 °C 1011.7 hPa SW 1.9 km/h 8 km/h 69 % 0 mm
17:37 8.3 °C 3.2 °C 1011.7 hPa SW 4.2 km/h 14.5 km/h 70 % 0 mm
17:42 8.1 °C 3.4 °C 1011.7 hPa SSW 7.9 km/h 14.5 km/h 72 % 0 mm
17:47 7.9 °C 3.4 °C 1011.7 hPa SW 4 km/h 6.4 km/h 73 % 0 mm
17:52 7.8 °C 3.3 °C 1011.7 hPa SW 3.1 km/h 5.6 km/h 73 % 0 mm
17:58 7.7 °C 3.3 °C 1011.7 hPa South 2.6 km/h 9.7 km/h 74 % 0 mm
18:03 7.6 °C 3.4 °C 1011.7 hPa South 3.7 km/h 11.1 km/h 75 % 0 mm
18:08 7.5 °C 3.6 °C 1011.7 hPa South 4.7 km/h 13 km/h 76 % 0 mm
18:13 7.4 °C 3.5 °C 1011.7 hPa South 4.3 km/h 14.5 km/h 76 % 0 mm
18:18 7.4 °C 3.7 °C 1011.7 hPa SSW 4.3 km/h 9.3 km/h 77 % 0 mm
18:23 7.4 °C 3.7 °C 1011.4 hPa SSW 5.5 km/h 11.1 km/h 77 % 0 mm
18:28 7.4 °C 3.7 °C 1011.4 hPa South 6.6 km/h 14.5 km/h 77 % 0 mm
18:33 7.5 °C 3.9 °C 1011.4 hPa South 7.6 km/h 13 km/h 78 % 0 mm
18:38 7.5 °C 3.9 °C 1011.4 hPa SSW 5.1 km/h 11.3 km/h 78 % 0 mm
18:43 7.6 °C 3.9 °C 1011.4 hPa SSW 4 km/h 9.3 km/h 78 % 0 mm
18:48 7.6 °C 3.9 °C 1011.4 hPa SSW 3.9 km/h 5.6 km/h 78 % 0 mm
18:53 7.5 °C 3.9 °C 1011.1 hPa SSW 2.6 km/h 5.6 km/h 78 % 0 mm
18:58 7.4 °C 3.8 °C 1011.1 hPa South 1.6 km/h 11.1 km/h 78 % 0 mm
19:03 7.4 °C 3.8 °C 1011.1 hPa SW 1.6 km/h 3.7 km/h 78 % 0 mm
19:08 7.3 °C 3.7 °C 1011.1 hPa SSE 2.9 km/h 9.7 km/h 78 % 0 mm
19:13 7.2 °C 3.8 °C 1011.4 hPa SW 4.3 km/h 11.1 km/h 79 % 0 mm
19:18 7.1 °C 3.7 °C 1011.1 hPa SSW 5.8 km/h 9.3 km/h 79 % 0 mm
19:23 7 °C 3.8 °C 1011.1 hPa SW 0.3 km/h 7.4 km/h 80 % 0 mm
19:28 6.9 °C 3.7 °C 1011.1 hPa SSW 1.8 km/h 11.1 km/h 80 % 0 mm
19:34 6.9 °C 3.8 °C 1011.1 hPa SSW 4.7 km/h 11.1 km/h 81 % 0 mm
19:39 6.8 °C 3.8 °C 1010.7 hPa SW 3.9 km/h 9.7 km/h 81 % 0 mm
19:44 6.8 °C 3.7 °C 1010.7 hPa SW 5.8 km/h 9.3 km/h 81 % 0 mm
19:49 6.7 °C 3.9 °C 1010.7 hPa SW 6.3 km/h 9.3 km/h 82 % 0 mm
19:54 6.7 °C 3.9 °C 1010.7 hPa SW 4.2 km/h 11.1 km/h 82 % 0 mm
19:59 6.7 °C 3.8 °C 1010.7 hPa SSW 3.7 km/h 9.3 km/h 82 % 0 mm
20:04 6.7 °C 4 °C 1010.7 hPa SSW 6.1 km/h 9.3 km/h 83 % 0 mm
20:09 6.7 °C 4 °C 1010.7 hPa SW 8 km/h 11.1 km/h 83 % 0 mm
20:14 6.7 °C 4 °C 1010.7 hPa SW 5 km/h 9.3 km/h 83 % 0 mm
20:19 6.6 °C 3.9 °C 1010.7 hPa SSW 3.4 km/h 11.1 km/h 83 % 0 mm
20:24 6.6 °C 3.9 °C 1010.7 hPa WSW 1.6 km/h 5.6 km/h 83 % 0 mm
20:29 6.6 °C 3.9 °C 1010.7 hPa SW 5.6 km/h 7.4 km/h 83 % 0 mm
20:34 6.5 °C 4 °C 1010.7 hPa SSW 2.6 km/h 5.6 km/h 84 % 0 mm
20:39 6.4 °C 3.9 °C 1010.7 hPa SW 0.8 km/h 5.6 km/h 84 % 0 mm
20:44 6.4 °C 3.9 °C 1010.7 hPa SSW 4.3 km/h 11.1 km/h 84 % 0 mm
20:49 6.4 °C 3.9 °C 1010.7 hPa SW 4.7 km/h 9.3 km/h 84 % 0 mm
20:54 6.4 °C 3.9 °C 1010.7 hPa SSW 2.4 km/h 4.8 km/h 84 % 0 mm
21:00 6.3 °C 3.8 °C 1010.7 hPa SSW 0.5 km/h 5.6 km/h 84 % 0 mm
21:05 6.3 °C 4 °C 1010.7 hPa South 3.2 km/h 5.6 km/h 85 % 0 mm
21:10 6.3 °C 3.9 °C 1010.4 hPa WSW 6.9 km/h 11.1 km/h 85 % 0 mm
21:15 6.3 °C 3.9 °C 1010.7 hPa SSW 2.6 km/h 6.4 km/h 85 % 0 mm
21:20 6.3 °C 4 °C 1010.4 hPa WSW 1.3 km/h 5.6 km/h 85 % 0 mm
21:25 6.3 °C 4.2 °C 1010.4 hPa SSW 0.6 km/h 11.1 km/h 86 % 0 mm
21:30 6.4 °C 4.3 °C 1010 hPa SSW 6.3 km/h 9.3 km/h 86 % 0 mm
21:35 6.5 °C 4.3 °C 1010.4 hPa SSW 4.8 km/h 16.7 km/h 86 % 0 mm
21:40 6.6 °C 4.4 °C 1010.4 hPa South 3.9 km/h 7.4 km/h 86 % 0 mm
21:45 6.7 °C 4.5 °C 1010 hPa SW 4.5 km/h 11.1 km/h 86 % 0 mm
21:50 6.8 °C 4.4 °C 1010 hPa SW 1.6 km/h 5.6 km/h 85 % 0 mm
21:55 6.8 °C 4.5 °C 1010 hPa SW 2.4 km/h 6.4 km/h 85 % 0 mm
22:00 6.9 °C 4.6 °C 1010 hPa SSW 3.7 km/h 4.8 km/h 85 % 0 mm
22:05 6.9 °C 4.6 °C 1010 hPa SW 4.7 km/h 7.4 km/h 85 % 0 mm
22:10 6.9 °C 4.4 °C 1009.7 hPa WSW 6.3 km/h 11.1 km/h 84 % 0 mm
22:15 6.9 °C 4.6 °C 1010 hPa SW 3.7 km/h 9.3 km/h 85 % 0 mm
22:21 6.9 °C 4.6 °C 1009.7 hPa SW 3.2 km/h 9.7 km/h 85 % 0 mm
22:26 7 °C 4.7 °C 1009.4 hPa SW 1.6 km/h 11.3 km/h 85 % 0 mm
22:31 7.1 °C 4.7 °C 1009.7 hPa SW 3.2 km/h 11.3 km/h 85 % 0 mm
22:36 7.1 °C 4.8 °C 1009.4 hPa SW 1.6 km/h 8 km/h 85 % 0 mm
22:41 7.2 °C 4.8 °C 1009.4 hPa SSW 1.6 km/h 8 km/h 85 % 0 mm
22:46 7.2 °C 4.8 °C 1009.4 hPa SSW 3.4 km/h 5.6 km/h 85 % 0 mm
22:51 7.2 °C 4.7 °C 1009.4 hPa SW 8 km/h 12.9 km/h 84 % 0 mm
22:56 7.3 °C 4.7 °C 1009 hPa SW 3.2 km/h 6.4 km/h 84 % 0 mm
23:01 7.3 °C 4.8 °C 1009 hPa SW 1 km/h 5.6 km/h 84 % 0 mm
23:06 7.3 °C 5 °C 1009 hPa SW 1.6 km/h 9.7 km/h 85 % 0 mm
23:11 7.3 °C 5 °C 1009 hPa WSW 3.2 km/h 11.3 km/h 85 % 0 mm
23:16 7.4 °C 5.2 °C 1009 hPa SW 3.2 km/h 9.7 km/h 86 % 0 mm
23:21 7.4 °C 5.2 °C 1009 hPa SW 1.6 km/h 8 km/h 86 % 0 mm
23:26 7.4 °C 5.4 °C 1009 hPa SW 3.1 km/h 7.4 km/h 87 % 0 mm
23:31 7.4 °C 5.6 °C 1009 hPa SW 1.6 km/h 6.4 km/h 88 % 0 mm
23:36 7.4 °C 5.6 °C 1009 hPa SW 1.6 km/h 8 km/h 88 % 0 mm
23:41 7.3 °C 5.5 °C 1009 hPa SSW 1.6 km/h 6.4 km/h 88 % 0 mm
23:46 7.3 °C 5.7 °C 1009 hPa SSW 3.2 km/h 6.4 km/h 89 % 0 mm
23:51 7.3 °C 5.6 °C 1009 hPa SSW 1.6 km/h 6.4 km/h 89 % 0 mm
23:56 7.2 °C 5.7 °C 1008.7 hPa SSW 1.6 km/h 6.4 km/h 90 % 0 mm
Crab Meadow Weather
Compliments of Weather Underground - 3 mb

Script developed by  Jim McMurry - jmcmurry@mwt.net Adapted for the template by  Wim van der Kuil - Leuven-Template.eu

Weather Terms: Heavy Sleet Warning - Accumulations of 1/2 inch or more of sleet.